Regional Weather Roundup
Issued by NWS

Home | Current Version | Previous Version | Graphics & Text | Print | Product List | Glossary On
Versions: 1 2 3 4 5 6 7 8 9 10 11 12 13 14 15 16 17 18 19 20 21 22 23 24 25 26 27 28 29 30 31 32 33 34 35 36 37 38 39 40 41 42 43 44 45 46 47 48 49 50
000
ASUS45 KPSR 191400
RWRAZ

ARIZONA REGIONAL HOURLY WEATHER ROUNDUP
NATIONAL WEATHER SERVICE PHOENIX AZ
700 AM MST SUN APR 19 2015

NOTE: FAIR INDICATES FEW OR NO CLOUDS BELOW 12,000 FEET WITH NO
SIGNIFICANT WEATHER AND/OR OBSTRUCTIONS TO VISIBILITY.

AZZ001>003-036-191500-
NORTHWEST ARIZONA

CITY           SKY/WX    TMP DP  RH WIND       PRES   REMARKS
KINGMAN        SUNNY     58  15  18 SE15      29.98R
$$

AZZ004>008-015-016-018-191500-
NORTH CENTRAL ARIZONA

CITY           SKY/WX    TMP DP  RH WIND       PRES   REMARKS
GRAND CANYON   SUNNY     35  20  54 CALM      30.14R
WILLIAMS       SUNNY     37  18  44 S8        30.19R WCI  31
PRESCOTT       SUNNY     46  22  38 CALM      30.07R
FLAGSTAFF      NOT AVBL
PAYSON         SUNNY     48  18  29 CALM      30.09R
PAGE           SUNNY     55  29  36 CALM      30.08R
$$

AZZ009>014-017-191500-
NORTHEAST ARIZONA

CITY           SKY/WX    TMP DP  RH WIND       PRES   REMARKS
WINSLOW        NOT AVBL
SAINT JOHNS    SUNNY     42  19  39 S3        30.09R
WINDOW ROCK    SUNNY     39  28  64 CALM      30.12R
SHOW LOW       SUNNY     41  16  36 SW3       30.13R
$$

AZZ023-191500-
GREATER PHOENIX AREA

CITY           SKY/WX    TMP DP  RH WIND       PRES   REMARKS
PHOENIX        MOSUNNY   65  25  22 E8        29.91R
GLENDALE       MOSUNNY   63  32  31 NW3       29.93
DEER VALLEY    SUNNY     63  25  23 E5        29.92R
SCOTTSDALE     SUNNY     63  28  26 CALM      29.94R
MESA-FALCON    SUNNY     61  25  25 N7        29.93R
MESA-GATEWAY   SUNNY     57  25  28 E8        29.95R
CHANDLER       MOSUNNY   59  28  31 NE7       29.93R
$$

AZZ027-028-191500-
SOUTHWEST MARICOPA COUNTY AND PINAL COUNTY

CITY           SKY/WX    TMP DP  RH WIND       PRES   REMARKS
CASA GRANDE    SUNNY     57  25  28 CALM      29.93R
$$

AZZ503-504-507>509-191500-
SOUTHEAST ARIZONA

CITY           SKY/WX    TMP DP  RH WIND       PRES   REMARKS
TUCSON         SUNNY     57  25  29 SE6       30.01R
RYAN FIELD       N/A     52  23  32 CALM      30.01R
NOGALES        SUNNY     47  27  45 CALM      30.05R
SAFFORD        SUNNY     53  18  25 SE5       29.99R
$$

AZZ020-021-025-026-031-191500-
SOUTHWEST ARIZONA

CITY           SKY/WX    TMP DP  RH WIND       PRES   REMARKS
YUMA           SUNNY     66  37  34 CALM      29.87R
$$

CAZ031-033-041-043-047-048-061-191500-
SOUTHERN CALIFORNIA

CITY           SKY/WX    TMP DP  RH WIND       PRES   REMARKS
DOWNTOWN L.A.  CLEAR     56  52  86 CALM      29.97R
L.A. AIRPORT   PTCLDY    57  54  89 CALM      29.97R
SAN DIEGO      MOCLDY    61  53  75 N5        29.98R
BURBANK        CLEAR     54  38  54 CALM      29.96R
ONTARIO        PTCLDY    56  44  64 NE3       29.97R
RIVERSIDE      CLEAR     55  44  66 CALM      29.97R
PALM SPRINGS   CLEAR     67  36  31 NW3       29.88R
EL CENTRO NAS  CLEAR     60  40  47 S5        29.85R
IMPERIAL       CLEAR     60  32  34 CALM      29.85R
BLYTHE         SUNNY     63  28  26 NW7       29.87R
$$

NVZ020-UTZ003-191500-
SOUTHERN NEVADA-UTAH

CITY           SKY/WX    TMP DP  RH WIND       PRES   REMARKS
LAS VEGAS      NOT AVBL
SALT LAKE CITY MOSUNNY   48  34  58 S8        30.08R
$$

NMZ009-TXZ055-191500-
NEW MEXICO-WEST TEXAS

CITY           SKY/WX    TMP DP  RH WIND       PRES   REMARKS
ALBUQUERQUE    MOSUNNY   49  31  49 N8        30.07R
EL PASO        SUNNY     58  22  24 E6        29.99R
$$


........................KEY........................
SKY/WX - SKY CONDITION/WEATHER
TMP    - TEMPERATURE IN FAHRENHEIT
DP     - DEW POINT IN FAHRENHEIT
RH     - RELATIVE HUMIDITY IN PERCENT
WIND   - DIRECTION AND SPEED IN MILES PER HOUR (MPH)
VRB    - VARIABLE WIND DIRECTION
PRES   - MEAN SEA LEVEL PRESSURE IN INCHES OF MERCURY
         F - FALLING PRESSURE   R - RISING PRESSURE
         S - STEADY PRESSURE
VSB    - VISIBILITY IN MILES
HX     - HEAT INDEX IN FAHRENHEIT
WCI    - WIND CHILL INDEX IN FAHRENHEIT
TC     - TEMPERATURE IN CELSIUS WHICH IS ALSO KNOWN AS
         TEMPERATURE IN CENTIGRADE
AFB    - AIR FORCE BASE
         LUKE AFB IS LUKE AIR FORCE BASE
         DAVIS-MONTHAN IS DAVIS-MONTHAN AIR FORCE BASE
NAS    - NAVAL AIR STATION
         EL CENTRO NAS IS EL CENTRO NAVAL AIR STATION
N/A    - NOT AVAILABLE




USA.gov is the U.S. government's official web portal to all federal, state and local government web resources and services.